EHI
9 8 7 5 2 0 0 0 0 0 0 0 0 1 2 2 1 0 0 0 0 0 0 0 0 0 0 0 0 0 1 2 3 2 2 1 1 1 1 0 0 0 0
9 8 7 6 3 1 0 0 0 0 0 0 0 0 1 1 0 0 0 0 0 0 0 0 0 0 0 0 0 0 1 2 2 1 1 0 0 0 0 0 0 0 0
7 6 6 5 3 1 0 0 0 0 0 0 0 0 0 0 0 0 0 0 0 0 0 0 0 0 0 0 0 0 0 1 1 0 0 0 0 0 0 0 0 0 0
6 5 5 5 3 1 0 0 0 0 0 0 0 0 0 0 0 0 0 0 0 0 0 0 0 0 0 0 0 0 1 2 1 0 0 0 0 0 1 0 0 0 0
10 9 8 6 3 1 0 0 0 0 0 0 0 0 0 0 0 0 0 0 0 0 0 0 0 0 0 0 0 0 1 2 1 0 0 0 0 0 0 0 0 0 0
19 15 11 8 4 1 0 0 0 0 0 0 0 0 0 0 0 0 0 0 0 0 0 0 0 0 0 0 0 1 3 4 2 0 0 0 0 0 0 0 0 0 0
28 19 11 10 6 2 0 0 0 0 0 0 0 0 0 0 0 0 0 0 0 0 0 0 0 0 0 0 0 2 5 6 2 0 0 0 0 0 0 0 0 0 0
34 20 10 9 7 3 1 0 0 0 0 1 1 0 0 0 0 0 0 0 0 0 0 0 0 0 0 0 0 2 6 5 2 0 0 0 0 0 0 0 0 0 0
33 19 6 3 3 2 1 0 0 0 1 2 2 1 0 0 0 0 0 0 0 0 0 0 0 0 0 0 0 2 5 5 2 0 0 0 0 0 0 0 0 0 0
31 17 4 0 0 0 0 0 0 0 1 2 2 1 0 0 0 0 0 0 0 0 0 0 0 0 0 0 0 2 4 4 1 0 0 0 0 0 0 0 0 0 0
34 21 7 2 0 0 0 0 0 0 0 1 1 0 0 0 0 0 0 0 0 0 0 0 0 0 0 0 0 2 2 2 0 0 0 0 0 0 0 0 0 0 0
40 30 18 9 4 3 2 1 0 0 1 0 0 0 0 0 0 0 1 1 0 0 0 0 0 0 0 0 2 3 1 0 0 0 1 1 1 0 0 0 0 0 0
42 38 31 20 12 10 7 2 0 1 2 2 1 1 0 0 1 1 1 0 0 0 0 0 1 0 0 1 2 2 1 0 0 0 1 1 1 0 0 0 0 0 0
43 44 42 34 25 23 17 7 1 1 2 3 4 3 2 1 1 2 2 1 0 0 0 0 0 0 0 0 1 1 0 0 0 0 0 0 0 0 0 0 0 0 0
53 55 54 48 43 40 31 17 7 5 4 6 8 6 4 3 3 4 4 3 1 1 1 0 0 0 0 0 0 0 0 0 0 1 0 0 0 0 0 0 0 0 0
67 69 67 61 57 53 40 26 16 11 9 12 15 12 8 6 7 8 8 5 3 3 3 1 0 1 0 0 0 0 1 1 1 1 0 0 0 0 0 0 0 0 0
79 78 72 64 60 55 42 29 19 14 14 20 24 20 15 11 11 14 11 7 5 7 7 3 1 1 0 0 0 0 1 2 2 1 0 0 0 0 0 0 0 0 0
85 83 72 62 59 55 44 33 23 22 28 34 32 25 20 16 16 16 13 8 7 9 7 4 2 1 1 1 0 0 0 1 1 0 0 0 0 0 0 0 0 0 0
88 85 75 69 66 60 50 41 35 38 45 46 38 29 23 20 18 16 13 10 9 10 8 5 6 6 3 1 0 0 0 0 0 0 0 0 0 0 0 0 0 0 0
90 87 82 80 76 66 54 47 45 46 48 45 41 34 27 23 20 16 16 16 14 11 8 8 12 11 5 1 0 0 0 0 1 1 1 1 1 1 2 2 1 0 0
92 91 89 88 83 70 57 50 48 46 42 40 42 41 33 26 22 19 19 21 17 11 8 11 14 11 5 1 0 0 0 0 2 2 2 2 3 4 5 5 4 2 1
94 94 93 92 86 75 63 55 52 47 40 40 48 49 38 27 24 21 21 20 16 11 10 11 12 9 4 1 1 0 0 0 1 2 2 2 4 6 7 7 8 7 5
96 96 95 93 89 81 70 61 60 54 44 44 53 52 41 30 25 24 23 20 16 12 11 12 12 10 5 1 0 0 0 0 0 0 1 2 5 7 5 5 9 9 8
97 97 96 94 90 83 73 67 66 57 45 46 54 53 44 34 26 25 26 26 21 16 13 12 12 12 7 2 0 0 1 1 1 0 0 1 4 6 4 3 6 8 9
96 95 95 94 90 83 75 72 69 57 44 44 52 54 47 37 27 23 28 33 29 22 18 15 14 13 8 3 0 0 1 1 1 0 0 0 2 3 3 3 4 7 9
94 93 93 92 89 82 75 74 70 57 45 43 51 55 49 39 28 23 29 37 35 28 24 20 16 12 8 4 1 0 0 1 0 0 0 0 0 1 3 5 5 7 10
Wind_Speed
16 15 15 15 15 15 15 16 16 16 16 17 17 17 18 18 18 18 18 18 18 17 17 16 16 16 16 15 15 15 15 15 15 17 17 17 15 14 13 14 14 12 16
19 17 15 15 15 15 15 16 16 16 16 16 16 17 17 17 17 17 17 17 17 17 16 16 16 15 15 14 13 13 13 13 14 15 17 16 15 14 14 15 15 11 15
19 17 16 15 15 15 15 15 16 16 16 16 16 16 16 16 16 16 17 16 16 16 16 15 15 15 14 13 12 11 11 11 11 11 12 11 12 15 17 17 16 15 15
19 16 16 16 16 15 15 15 15 15 15 15 15 15 15 15 16 16 16 16 16 15 15 15 14 14 13 12 10 9 8 7 7 7 6 9 10 15 16 16 15 15 15
19 17 17 17 16 15 15 14 14 15 15 15 15 14 14 15 15 15 15 15 15 15 14 14 14 13 12 10 8 6 4 3 3 7 9 10 9 13 15 15 15 15 14
20 18 17 17 16 15 15 14 14 14 14 14 14 14 14 14 15 15 15 14 14 14 14 14 13 12 11 9 6 4 3 3 4 9 9 10 9 12 14 14 14 14 13
20 18 17 16 16 15 15 14 14 14 14 14 13 13 13 13 14 15 14 14 14 14 13 13 12 11 9 7 4 3 4 4 5 9 9 9 9 12 14 14 13 13 13
20 18 16 16 16 15 14 14 13 13 13 13 13 13 13 13 13 14 14 13 13 13 12 12 11 10 8 5 2 3 4 3 9 11 11 9 10 12 13 13 13 13 12
21 18 15 14 14 14 14 14 13 13 13 13 13 13 13 13 13 13 13 13 12 12 12 11 10 9 7 3 1 2 4 5 6 8 11 8 11 12 12 12 12 12 12
18 17 16 14 13 12 12 13 13 13 13 12 12 12 13 13 13 13 12 11 12 11 11 10 9 7 5 2 1 3 4 3 7 10 8 9 12 12 12 12 12 11 11
15 14 15 15 13 12 12 13 12 12 12 11 10 12 10 8 9 8 12 11 11 10 9 9 8 6 5 3 3 3 4 1 8 8 7 11 12 12 11 11 11 10 10
14 14 13 14 13 12 11 10 8 8 8 6 6 7 5 3 5 9 11 11 10 9 8 7 6 6 5 3 4 4 1 3 7 8 7 11 11 11 11 10 10 10 9
13 12 13 11 9 10 9 8 5 4 6 5 6 5 4 4 5 7 5 6 6 7 5 6 5 4 3 1 2 2 2 4 5 7 8 11 10 11 10 9 9 9 8
12 12 13 11 7 7 8 7 6 5 5 4 5 5 4 2 3 4 3 4 4 3 3 3 2 2 1 1 2 2 3 4 6 6 7 11 10 10 9 9 8 8 7
11 11 11 9 8 6 5 5 6 5 6 6 5 4 5 3 3 3 2 2 3 3 3 1 2 2 2 1 2 4 4 5 7 7 6 10 9 9 9 8 8 7 7
12 12 11 10 8 6 5 2 4 4 4 5 5 5 4 3 3 3 3 2 1 2 2 2 3 3 2 1 1 2 2 4 6 8 7 7 9 8 8 8 8 7 7
13 12 11 10 9 7 6 5 4 4 5 4 4 5 4 4 4 3 3 2 2 2 2 1 2 2 2 2 2 2 2 3 4 7 7 6 6 7 8 8 7 7 7
13 12 11 12 11 8 6 4 3 4 4 4 5 4 4 4 4 3 3 3 3 3 3 2 1 2 2 2 2 1 2 2 3 4 6 6 5 6 7 8 8 7 7
12 12 11 9 12 9 7 4 3 3 3 4 5 4 4 5 4 3 2 3 3 2 2 3 2 2 2 1 2 2 2 2 2 3 4 5 5 5 5 7 8 7 7
12 12 10 9 10 9 7 4 3 4 3 3 4 5 6 4 4 3 3 3 2 2 2 2 3 2 1 2 2 2 2 3 3 2 3 4 5 6 7 7 6 6 8
13 12 11 10 10 8 6 6 5 5 4 3 4 6 6 5 5 3 3 4 2 2 2 3 2 3 2 2 1 1 1 2 3 3 3 3 4 5 6 7 5 4 5
14 13 12 11 11 10 6 5 4 5 4 4 3 5 6 5 5 5 3 3 3 2 2 2 2 1 2 2 2 1 1 1 2 4 3 4 4 4 5 7 5 5 5
15 15 13 12 11 10 8 6 5 4 3 4 5 5 5 6 5 3 5 3 3 3 3 3 3 3 1 1 1 1 1 2 2 2 4 3 3 3 3 4 6 6 6
15 14 12 12 11 10 9 8 8 7 6 5 5 5 6 6 6 5 5 4 3 3 4 4 4 3 2 2 1 1 1 1 1 1 2 3 5 4 3 4 5 5 5
15 14 12 12 11 11 10 9 8 7 6 4 5 7 6 6 6 6 5 4 4 3 4 3 3 3 2 2 2 2 2 2 2 2 2 2 3 4 4 4 3 4 6
14 14 13 13 11 11 11 10 9 8 7 7 7 7 6 5 5 6 6 5 5 4 3 3 3 4 3 2 1 1 1 2 2 2 2 3 3 3 4 4 4 4 4
Wind_Direction
111 113 114 110 107 104 102 99 98 97 96 94 92 92 93 94 95 95 95 95 95 94 94 93 90 89 88 88 88 89 91 93 94 94 91 87 86 88 93 100 94 93 98
115 116 115 112 109 107 105 102 101 100 99 97 96 96 96 96 96 97 97 97 97 96 95 93 92 92 91 91 92 94 97 100 102 103 99 90 84 85 88 88 90 98 100
116 119 117 113 112 109 108 105 103 103 102 100 99 98 98 98 98 98 98 99 99 97 96 96 96 96 95 95 95 96 100 107 113 120 109 95 88 85 88 91 96 100 101
121 124 118 117 115 112 110 108 106 105 104 102 101 100 100 100 100 100 100 100 100 99 99 98 99 98 98 98 96 96 100 108 116 119 98 93 90 90 92 95 98 101 101
120 116 119 121 117 115 112 110 109 107 105 104 102 101 101 101 101 102 102 102 101 100 100 99 99 98 98 98 97 95 93 97 112 97 88 88 88 95 96 98 98 99 101
121 119 123 123 120 118 116 113 112 110 108 106 104 104 103 103 103 103 103 103 102 101 99 99 98 99 99 98 92 73 43 33 69 93 94 95 95 99 100 101 100 100 101
121 123 126 126 123 122 120 117 116 114 112 111 109 107 106 105 104 104 104 103 103 102 101 100 99 102 101 95 80 37 12 23 91 91 90 90 97 101 101 102 102 102 102
124 124 127 128 127 126 124 121 119 118 117 114 113 111 110 109 107 106 107 106 104 103 103 103 103 103 103 99 71 7 354 18 100 101 97 96 105 105 105 104 104 103 103
124 128 136 135 132 130 128 127 124 123 121 120 119 117 116 115 114 112 110 109 108 108 107 108 107 108 108 107 70 347 357 21 91 107 104 103 109 109 109 108 108 107 106
129 136 140 141 140 140 135 133 131 130 129 128 128 128 125 124 122 122 118 114 114 113 114 115 117 120 126 133 250 310 332 3 98 99 100 110 113 113 113 113 113 112 110
132 138 141 143 151 149 143 138 139 137 136 138 139 140 144 144 135 137 118 123 123 124 125 128 133 139 155 183 231 276 303 114 95 92 97 114 117 117 116 115 115 116 115
139 143 143 148 157 154 143 143 153 151 150 159 149 158 173 145 134 123 127 133 137 139 143 150 158 169 195 190 200 233 254 100 100 101 110 121 121 121 121 119 119 120 121
149 148 143 151 155 148 137 156 154 143 150 161 158 165 161 142 133 129 141 144 153 163 172 162 185 211 206 203 159 159 128 103 106 109 123 127 125 125 126 126 126 125 126
156 152 146 147 145 144 144 146 149 149 154 156 166 172 148 148 143 142 150 163 172 175 169 173 175 156 163 122 99 101 91 101 105 113 131 133 133 134 134 134 134 133 130
158 150 141 145 140 136 127 158 157 156 155 154 161 164 156 157 143 135 136 156 176 156 154 159 127 121 97 56 57 78 82 104 121 120 130 141 140 141 142 144 146 145 143
163 154 147 151 139 136 142 167 139 143 136 151 154 153 166 143 128 135 146 150 153 133 132 153 136 131 118 90 74 84 85 103 117 128 138 148 151 152 153 156 157 157 157
165 155 152 154 146 151 159 176 157 150 157 150 131 142 158 139 141 157 146 159 151 130 118 116 131 135 143 131 105 98 90 83 110 130 144 152 158 165 167 167 167 168 169
163 157 163 167 156 161 163 186 167 163 149 139 138 150 155 142 162 172 156 161 160 156 148 144 155 115 101 112 127 121 112 115 119 141 148 156 161 164 174 178 175 175 177
161 159 168 164 157 165 164 181 174 146 143 146 148 154 156 162 171 182 148 140 172 166 157 173 136 126 131 131 157 154 151 146 146 166 145 152 157 155 160 173 177 179 182
162 161 168 162 159 162 163 176 176 164 164 164 147 152 157 170 179 182 155 152 182 155 138 110 123 131 155 174 208 151 164 152 178 155 164 155 163 168 163 162 171 187 190
165 165 169 169 163 167 171 179 180 177 180 173 161 156 164 177 176 199 158 154 191 158 158 156 147 166 198 166 129 108 220 182 182 169 185 166 176 172 161 161 175 178 180
170 170 172 173 171 177 176 176 181 170 180 176 168 157 172 178 176 188 157 176 170 159 167 157 157 179 208 173 156 146 180 271 247 198 175 186 180 169 174 174 172 172 177
176 176 178 176 175 180 171 175 182 159 188 173 160 168 181 179 186 195 168 184 169 180 175 185 179 192 212 198 194 156 155 195 208 213 204 183 166 177 188 172 178 180 180
178 177 175 175 176 178 175 183 183 182 192 186 171 170 180 186 190 192 180 181 185 188 165 198 191 192 198 217 206 192 186 172 176 190 228 193 182 186 200 197 186 178 178
177 177 176 175 177 178 184 190 190 193 192 183 172 169 179 186 195 195 183 180 192 201 174 186 162 191 201 213 214 201 204 196 225 189 204 206 204 189 194 198 178 180 182
176 177 177 176 178 181 188 192 197 200 193 189 179 174 183 182 196 201 187 184 193 198 183 184 183 195 208 221 244 255 214 199 214 207 200 199 199 203 193 184 189 189 186